Home   Weather   Toulon   Past weeks

Flag for France Past Weather in Toulon, Provence-Alpes-Côte d'Azur, France — Yesterday and Last 2 Weeks

55 °F


Feels Like: 54 °F
Forecast: 57 / 64 °F
Wind: 6 mph from North

Location: Hyeres Airport

Current Time: Oct 22, 2016 at 9:44:05 PM

Latest Report: Oct 22, 2016 at 9:00 PM

Visibility: N/A

Pressure: 29.95 "Hg

Humidity: 94%

Dew Point: 54 °F

Location of ToulonLocation

Past Weather in Toulon — Graph


Toulon Temperature Yesterday

Maximum temperature yesterday: 68 °F (at 1:30 PM)
Minimum temperature yesterday: 48 °F (at 11:30 PM)
Average temperature yesterday: 60 °F

High & Low Weather Summary for the Past Weeks

High75 °F (Oct 8, 4:30 PM)94% (Oct 14, 11:00 PM)30.24 "Hg (Oct 14, 11:00 PM)
Low46 °F (Oct 20, 7:00 AM)21% (Oct 8, 4:30 PM)29.50 "Hg (Oct 14, 6:00 AM)
Average61 °F68%29.95 "Hg
* Reported Oct 7 8:00 PM — Oct 22 8:30 PM, Toulon, Weather by CustomWeather, © 2016

Note: Actual official high and low records may vary slightly from our data, if they occured in-between our weather recording intervals... More about our weather records


Toulon Weather History for the Previous 24 Hours

Scroll right to see more
Time TempWeatherWind HumidityBarometerVisibility
8:30 PM
Sat, Oct 22
55 °FOvercast.9 mph94%29.95 "HgN/A
8:00 PM55 °FOvercast.7 mph94%29.95 "HgN/A
7:30 PM55 °FLight rain. Overcast.5 mph94%29.95 "HgN/A
7:00 PM55 °FLight rain. Fog.3 mph88%29.95 "Hg3 mi
6:30 PM57 °FRain. Overcast.5 mph82%29.92 "Hg5 mi
6:00 PM59 °FLight rain. Cloudy.6 mph77%29.92 "HgN/A
5:30 PM61 °FCool.8 mph68%29.92 "HgN/A
5:00 PM63 °FLight rain. Mostly cloudy.6 mph64%29.92 "HgN/A
4:30 PM63 °FMild.5 mph59%29.92 "HgN/A
4:00 PM64 °FOvercast.5 mph56%29.92 "HgN/A
3:30 PM64 °FSunny.3 mph56%29.92 "Hg10 mi
3:00 PM64 °FSunny.6 mph52%29.92 "Hg10 mi
2:30 PM64 °FPassing clouds.3 mph46%29.92 "HgN/A
2:00 PM64 °FPassing clouds.5 mph49%29.92 "HgN/A
1:30 PM64 °FPassing clouds.6 mph52%29.95 "HgN/A
1:00 PM64 °FPassing clouds.6 mph60%29.95 "HgN/A
12:30 PM66 °FPassing clouds.5 mph52%29.95 "HgN/A
12:00 PM64 °FSunny.5 mph60%29.95 "Hg10 mi
11:30 AM64 °FSunny.3 mph60%29.95 "Hg10 mi
11:00 AM63 °FSunny.1 mph64%29.95 "Hg10 mi
10:30 AM61 °FSunny.5 mph63%29.95 "Hg10 mi
10:00 AM57 °FSunny.6 mph72%29.95 "Hg10 mi
9:30 AM54 °FPassing clouds.8 mph77%29.95 "HgN/A
9:00 AM52 °FSunny.9 mph77%29.92 "Hg10 mi
8:30 AM50 °FSunny.8 mph82%29.92 "Hg10 mi
8:00 AM48 °FSunny.8 mph82%29.92 "Hg10 mi
7:30 AM48 °FClear.7 mph82%29.92 "Hg10 mi
7:00 AM48 °FClear.8 mph82%29.89 "Hg10 mi
6:30 AM48 °FClear.7 mph82%29.89 "Hg10 mi
6:00 AM46 °FClear.6 mph87%29.89 "Hg10 mi
5:30 AM48 °FClear.7 mph82%29.89 "Hg10 mi
5:00 AM48 °FClear.8 mph82%29.89 "Hg10 mi
4:30 AM48 °FClear.7 mph82%29.89 "Hg10 mi
4:00 AM48 °FClear.8 mph82%29.92 "Hg10 mi
3:30 AM48 °FClear.7 mph87%29.92 "Hg10 mi
3:00 AM46 °FClear.3 mph87%29.92 "Hg10 mi
2:00 AM50 °FClear.7 mph82%29.92 "Hg10 mi
1:30 AM50 °FClear.8 mph88%29.92 "Hg10 mi
1:00 AM48 °FClear.5 mph82%29.92 "Hg10 mi
12:30 AM50 °FClear.6 mph82%29.92 "Hg10 mi
12:00 AM52 °FClear.8 mph82%29.92 "Hg10 mi
11:30 PM
Fri, Oct 21
48 °FClear.6 mph87%29.92 "Hg10 mi
11:00 PM52 °FClear.7 mph77%29.92 "Hg10 mi
10:30 PM50 °FClear.6 mph88%29.92 "Hg10 mi
10:00 PM50 °FClear.3 mph82%29.92 "Hg10 mi
9:30 PM50 °FClear.2 mph82%29.89 "Hg10 mi
9:00 PM54 °FClear.5 mph77%29.89 "Hg10 mi
Weather by CustomWeather, © 2016

See weather overviewHow to use our weather pages